GW5166 Weather Reports


Display with metric or nautical units.
time (UTC)temp
F
wind
direction
speed
MPH
gust
MPH
rain 1hr
in
rain 24hr
in
rain mn
in
humidity
%
barometer
mb
20260504050432 58 240 4.0 6.0 0.00 0.00 0.00 41 1005.7
20260504045929 58 251 3.0 4.0 0.00 0.00 0.00 40 1005.9
20260504045425 57 278 2.0 3.0 0.00 0.00 0.00 42 1005.9
20260504044922 58 171 2.0 3.0 0.00 0.00 0.00 41 1006.0
20260504044420 58 264 4.0 4.0 0.00 0.00 0.00 41 1006.0
20260504043917 58 153 3.0 3.0 0.00 0.00 0.00 41 1006.0
20260504043414 58 241 2.0 3.0 0.00 0.00 0.00 41 1006.1
20260504042911 59 177 2.0 2.0 0.00 0.00 0.00 41 1006.2
20260504042408 59 244 1.0 1.0 0.00 0.00 0.00 41 1006.1
20260504041904 59 348 1.0 1.0 0.00 0.00 0.00 40 1006.3
20260504041400 59 197 0.0 1.0 0.00 0.00 0.00 40 1006.6
20260504040856 59 242 0.0 0.0 0.00 0.00 0.00 40 1006.6
20260504040354 59 305 0.0 0.0 0.00 0.00 0.00 40 1006.6
20260504035849 60 277 0.0 1.0 0.00 0.00 0.00 40 1006.6
20260504035348 60 313 2.0 2.0 0.00 0.00 0.00 39 1006.7
20260504034844 60 202 0.0 1.0 0.00 0.00 0.00 39 1007.0
20260504034342 60 261 1.0 2.0 0.00 0.00 0.00 39 1006.8
20260504033838 60 230 2.0 3.0 0.00 0.00 0.00 39 1007.0
20260504033337 60 258 3.0 3.0 0.00 0.00 0.00 40 1007.2
20260504032832 60 284 0.0 0.0 0.00 0.00 0.00 39 1007.1
20260504032330 61 256 1.0 1.0 0.00 0.00 0.00 38 1007.3
20260504031827 61 275 1.0 1.0 0.00 0.00 0.00 39 1007.4
20260504031324 61 297 0.0 0.0 0.00 0.00 0.00 39 1007.4
20260504030820 61 316 0.0 1.0 0.00 0.00 0.00 38 1007.2
20260504030318 62 287 0.0 0.0 0.00 0.00 0.00 38 1007.4
20260504025813 62 257 0.0 0.0 0.00 0.00 0.00 37 1007.3
20260504025311 62 271 0.0 0.0 0.00 0.00 0.00 37 1007.2
20260504024807 62 251 0.0 0.0 0.00 0.00 0.00 36 1007.3
20260504024304 63 255 1.0 1.0 0.00 0.00 0.00 37 1007.4
20260504023801 63 271 1.0 1.0 0.00 0.00 0.00 37 1007.3
20260504023257 63 243 1.0 1.0 0.00 0.00 0.00 37 1007.5
20260504022753 63 227 0.0 1.0 0.00 0.00 0.00 37 1007.3
20260504022249 64 247 0.0 0.0 0.00 0.00 0.00 36 1007.3
20260504021746 65 225 0.0 1.0 0.00 0.00 0.00 35 1007.3
20260504021244 65 287 0.0 0.0 0.00 0.00 0.00 34 1007.3
20260504020741 65 305 1.0 1.0 0.00 0.00 0.00 33 1007.3
20260504020237 65 286 2.0 2.0 0.00 0.00 0.00 33 1007.4
20260504015733 65 279 2.0 2.0 0.00 0.00 0.00 33 1007.7
20260504015230 66 313 1.0 2.0 0.00 0.00 0.00 33 1007.4
20260504014725 66 314 1.0 1.0 0.00 0.00 0.00 33 1007.4
20260504014223 66 293 2.0 2.0 0.00 0.00 0.00 32 1007.6
20260504013720 66 252 1.0 2.0 0.00 0.00 0.00 32 1007.5
20260504013218 66 266 2.0 2.0 0.00 0.00 0.00 32 1007.6
20260504012714 67 282 1.0 2.0 0.00 0.00 0.00 31 1007.5
20260504012212 67 344 1.0 1.0 0.00 0.00 0.00 31 1007.4
20260504011709 68 336 3.0 3.0 0.00 0.00 0.00 31 1007.6
20260504011205 68 290 3.0 4.0 0.00 0.00 0.00 31 1007.7
20260504010701 68 310 3.0 4.0 0.00 0.00 0.00 30 1007.5
20260504010157 69 239 4.0 4.0 0.00 0.00 0.00 30 1007.9
20260504005654 69 280 3.0 3.0 0.00 0.00 0.00 29 1007.8
20260504005151 70 341 2.0 3.0 0.00 0.00 0.00 29 1007.8
20260504004649 70 285 5.0 6.0 0.00 0.00 0.00 28 1007.6
20260504004146 70 319 6.0 7.0 0.00 0.00 0.00 28 1008.0
20260504003642 71 213 5.0 6.0 0.00 0.00 0.00 28 1007.9
20260504003139 71 21 3.0 4.0 0.00 0.00 0.00 28 1007.9
20260504002635 71 275 6.0 7.0 0.00 0.00 0.00 27 1008.0
20260504002133 72 295 5.0 7.0 0.00 0.00 0.00 26 1008.1
20260504001631 71 354 2.0 4.0 0.00 0.00 0.00 27 1008.1
20260504001127 71 309 9.0 11.0 0.00 0.00 0.00 27 1008.1
20260504000624 71 306 2.0 3.0 0.00 0.00 0.00 27 1008.0
20260504000121 71 319 4.0 4.0 0.00 0.00 0.00 27 1008.2
20260503235620 71 324 5.0 10.0 0.00 0.00 0.00 26 1008.3
20260503235116 72 166 4.0 8.0 0.00 0.00 0.00 26 1008.0
20260503234614 72 253 6.0 8.0 0.00 0.00 0.00 26 1008.2
20260503234112 72 167 4.0 6.0 0.00 0.00 0.00 28 1008.2
20260503233609 72 304 3.0 3.0 0.00 0.00 0.00 27 1008.1
20260503233104 72 313 10.0 15.0 0.00 0.00 0.00 27 1007.9
20260503232601 72 17 10.0 14.0 0.00 0.00 0.00 27 1008.1
20260503232059 72 276 4.0 8.0 0.00 0.00 0.00 27 1007.9
20260503231556 72 307 8.0 11.0 0.00 0.00 0.00 27 1007.6
20260503231053 72 208 9.0 13.0 0.00 0.00 0.00 28 1007.6
20260503230549 72 345 7.0 9.0 0.00 0.00 0.00 27 1007.5
20260503230047 72 297 6.0 8.0 0.00 0.00 0.00 27 1007.5
20260503225544 72 253 8.0 9.0 0.00 0.00 0.00 27 1007.7
20260503225038 73 265 8.0 9.0 0.00 0.00 0.00 27 1007.7
20260503224536 73 309 4.0 4.0 0.00 0.00 0.00 27 1007.6
20260503224034 74 156 6.0 8.0 0.00 0.00 0.00 27 1007.6
20260503223532 73 300 7.0 10.0 0.00 0.00 0.00 27 1007.4
20260503223027 73 305 11.0 13.0 0.00 0.00 0.00 27 1007.3
20260503222525 73 291 5.0 7.0 0.00 0.00 0.00 28 1007.4
20260503222023 72 36 4.0 6.0 0.00 0.00 0.00 27 1007.4
20260503221521 73 313 11.0 15.0 0.00 0.00 0.00 27 1007.5
20260503221018 73 309 7.0 9.0 0.00 0.00 0.00 26 1007.4
20260503220514 73 350 8.0 10.0 0.00 0.00 0.00 27 1007.5
20260503220011 73 282 5.0 8.0 0.00 0.00 0.00 27 1007.4
20260503215509 73 205 5.0 8.0 0.00 0.00 0.00 27 1007.4
20260503215005 73 28 5.0 7.0 0.00 0.00 0.00 27 1007.6
20260503214504 74 351 4.0 8.0 0.00 0.00 0.00 26 1007.3
20260503214000 73 258 11.0 14.0 0.00 0.00 0.00 26 1007.7
20260503213459 74 87 3.0 4.0 0.00 0.00 0.00 26 1007.4
20260503212954 73 321 9.0 10.0 0.00 0.00 0.00 27 1007.4
20260503212452 74 307 10.0 14.0 0.00 0.00 0.00 26 1007.6
20260503211949 74 298 0.0 0.0 0.00 0.00 0.00 25 1007.5
20260503211447 73 43 11.0 13.0 0.00 0.00 0.00 24 1007.6
20260503210942 73 272 8.0 10.0 0.00 0.00 0.00 25 1007.5
20260503210440 72 246 4.0 4.0 0.00 0.00 0.00 26 1007.4
20260503205939 72 334 4.0 7.0 0.00 0.00 0.00 26 1007.4
20260503205437 73 358 8.0 14.0 0.00 0.00 0.00 25 1007.6
20260503204933 73 303 6.0 8.0 0.00 0.00 0.00 25 1007.7
20260503204430 73 282 15.0 17.0 0.00 0.00 0.00 26 1007.7
20260503203927 73 0 4.0 6.0 0.00 0.00 0.00 25 1007.8
20260503203425 73 257 11.0 15.0 0.00 0.00 0.00 25 1007.7
20260503202921 73 249 3.0 6.0 0.00 0.00 0.00 26 1007.7
20260503202420 72 325 4.0 6.0 0.00 0.00 0.00 26 1007.7
20260503201918 73 303 12.0 16.0 0.00 0.00 0.00 26 1007.7
20260503201415 73 303 10.0 10.0 0.00 0.00 0.00 28 1007.8
20260503200912 73 224 7.0 10.0 0.00 0.00 0.00 28 1007.8
20260503200408 73 265 9.0 14.0 0.00 0.00 0.00 27 1007.9
20260503195905 72 16 5.0 10.0 0.00 0.00 0.00 27 1007.8
20260503195402 73 15 8.0 10.0 0.00 0.00 0.00 26 1007.7
20260503194859 72 208 9.0 13.0 0.00 0.00 0.00 28 1007.8
20260503194355 74 297 7.0 13.0 0.00 0.00 0.00 26 1007.8
20260503193851 73 251 9.0 14.0 0.00 0.00 0.00 27 1007.6
20260503193347 73 347 3.0 4.0 0.00 0.00 0.00 26 1007.7
20260503192843 73 245 8.0 10.0 0.00 0.00 0.00 27 1007.6
20260503192339 72 342 8.0 9.0 0.00 0.00 0.00 26 1007.8
20260503191835 73 251 14.0 18.0 0.00 0.00 0.00 26 1007.9
20260503191332 74 36 6.0 7.0 0.00 0.00 0.00 26 1007.6
20260503190829 73 344 6.0 8.0 0.00 0.00 0.00 25 1007.9
20260503190326 73 355 9.0 11.0 0.00 0.00 0.00 26 1007.8
20260503185823 71 104 7.0 15.0 0.00 0.00 0.00 28 1007.9
20260503185319 72 337 6.0 10.0 0.00 0.00 0.00 28 1007.8
20260503184820 71 18 6.0 9.0 0.00 0.00 0.00 29 1007.8
20260503184316 72 314 4.0 6.0 0.00 0.00 0.00 30 1008.1
20260503183811 72 39 9.0 15.0 0.00 0.00 0.00 28 1008.0
20260503183309 71 46 8.0 11.0 0.00 0.00 0.00 29 1007.9
20260503182806 71 6 11.0 15.0 0.00 0.00 0.00 30 1007.8
20260503182306 72 13 6.0 10.0 0.00 0.00 0.00 30 1008.1
20260503181802 71 6 7.0 9.0 0.00 0.00 0.00 31 1007.9
20260503181259 70 4 9.0 15.0 0.00 0.00 0.00 31 1008.0
20260503180755 72 39 4.0 6.0 0.00 0.00 0.00 31 1008.1
20260503180254 70 30 5.0 7.0 0.00 0.00 0.00 32 1008.1
20260503175749 70 263 6.0 8.0 0.00 0.00 0.00 33 1008.0
20260503175248 71 0 7.0 8.0 0.00 0.00 0.00 32 1008.1
20260503174743 70 341 7.0 9.0 0.00 0.00 0.00 32 1008.0
20260503174242 69 28 6.0 10.0 0.00 0.00 0.00 34 1008.1
20260503173742 69 18 3.0 4.0 0.00 0.00 0.00 33 1008.3
20260503173238 69 331 12.0 16.0 0.00 0.00 0.00 34 1008.2
20260503172735 69 8 8.0 10.0 0.00 0.00 0.00 34 1008.1
20260503172232 69 354 11.0 16.0 0.00 0.00 0.00 35 1008.2
20260503171729 69 10 12.0 14.0 0.00 0.00 0.00 34 1008.2
20260503171226 69 11 5.0 8.0 0.00 0.00 0.00 36 1008.1
20260503170723 69 168 6.0 9.0 0.00 0.00 0.00 37 1008.0
20260503170220 68 124 4.0 6.0 0.00 0.00 0.00 36 1008.2
20260503160141 65 111 8.0 10.0 0.00 0.00 0.00 42 1007.8
20260503150611 62 349 6.0 8.0 0.00 0.00 0.00 44 1007.6
20260503150108 62 310 6.0 8.0 0.00 0.00 0.00 44 1007.5
20260503130956 55 216 5.0 7.0 0.00 0.00 0.00 49 1007.7
20260503130453 54 279 6.0 7.0 0.00 0.00 0.00 50 1007.8
20260503110337 51 166 0.0 1.0 0.00 0.00 0.00 51 1008.2
20260503090224 55 122 9.0 13.0 0.00 0.00 0.00 43 1010.4
20260503081151 55 163 6.0 8.0 0.00 0.00 0.00 44 1010.4
20260503080646 55 99 4.0 6.0 0.00 0.00 0.00 44 1010.5
20260503080144 54 118 4.0 7.0 0.00 0.00 0.00 45 1010.5
20260503072621 55 180 3.0 4.0 0.00 0.00 0.00 45 1012.4
20260503072117 56 199 3.0 4.0 0.00 0.00 0.00 44 1012.5
20260503071614 55 188 6.0 9.0 0.00 0.00 0.00 44 1012.3
20260503071111 55 254 8.0 9.0 0.00 0.00 0.00 43 1012.6
20260503070608 55 304 4.0 4.0 0.00 0.00 0.00 42 1012.5
20260503070106 55 201 4.0 8.0 0.00 0.00 0.00 42 1012.1
20260503055031 56 333 5.0 6.0 0.00 0.00 0.00 40 1012.2
20260503054527 56 204 4.0 4.0 0.00 0.00 0.00 39 1012.2
20260503054025 56 237 3.0 4.0 0.00 0.00 0.00 39 1012.2
20260503053523 57 303 4.0 4.0 0.00 0.00 0.00 39 1012.3
20260503053020 57 214 5.0 8.0 0.00 0.00 0.00 39 1012.3
20260503052517 56 235 2.0 3.0 0.00 0.00 0.00 40 1012.5
20260503052013 56 196 7.0 9.0 0.00 0.00 0.00 40 1012.4
20260503051509 56 242 4.0 6.0 0.00 0.00 0.00 40 1012.5
20260503051007 56 12 2.0 4.0 0.00 0.00 0.00 41 1012.5